Tracking 27401 objects as of 4-Jun-2023
HD Live streaming from Space Station
objects crossing your sky now

D STAR ONE (EXOCONNECT)

Track D STAR ONE (EXOCONNECT) now!
10-day predictions


NORAD ID: 44410
Int'l Code: 2019-038AA
Perigee: 429.4 km
Apogee: 440.0 km
Inclination: 97.7 °
Period: 93.1 minutes
Semi major axis: 6805 km
RCS: Unknown
Launch date: July 5, 2019
Source: Germany (GER)
Launch site: VOSTOCHNY COSMODROME (VOSTO)
Your satellite tracking list
Your tracking list is empty




NASA's NSSDC Master Catalog

Two Line Element Set (TLE):
1 44410U 19038AA  23154.68791802  .00064864  00000-0  13075-2 0  9996
2 44410  97.6595 139.3853 0007732 357.4215   2.6992 15.46302101216745
Source of the keplerian elements: AFSPC